Regional Weather Roundup
Issued by NWS Green Bay, WI

Home | Current Version | Previous Version | Graphics & Text | Print | Product List | Glossary Off
Versions: 1 2 3 4 5 6 7 8 9 10 11 12 13 14 15 16 17 18 19 20 21 22 23 24 25 26 27 28 29 30 31 32 33 34 35 36 37 38 39 40 41 42 43 44 45 46 47 48 49 50

000
ASUS43 KGRB 012000
RWRGRB

NORTH-CENTRAL AND NORTHEAST WISCONSIN REGIONAL WEATHER ROUNDUP
NATIONAL WEATHER SERVICE GREEN BAY WI
300 PM CDT SAT AUG 01 2015

WIZ005-009-010>012-018-019-012100-
NORTH CENTRAL WISCONSIN

CITY           SKY/WX    TMP DP  RH WIND       PRES   REMARKS
IRONWOOD       SUNNY     75  52  43 NW13      29.84
MANITOWISH WTR NOT AVBL
ARBOR VITAE    NOT AVBL
EAGLE RIVER    NOT AVBL
LAND O LAKES   NOT AVBL
RHINELANDER    MOSUNNY   79  51  37 W12G18    29.92F
PHILLIPS       MOSUNNY   77  53  42 W9G16     29.91S
ANTIGO         NOT AVBL
TOMAHAWK       NOT AVBL
MERRILL        NOT AVBL
$$

WIZ013-073-012100-
NORTHEAST WISCONSIN

CITY           SKY/WX    TMP DP  RH WIND       PRES   REMARKS
IRON MOUNTAIN  PTSUNNY   79  50  36 NW10      29.85F
MARINETTE      MOSUNNY   81  54  39 NW7       29.85F
$$

WIZ017-030-035>037-045-012100-
CENTRAL WISCONSIN

CITY           SKY/WX    TMP DP  RH WIND       PRES   REMARKS
MEDFORD        NOT AVBL
WAUSAU         MOSUNNY   79  47  32 NW10G21   29.90F
MOSINEE        NOT AVBL
MARSHFIELD     MOSUNNY   81  51  35 W9        29.92F
WISC RAPIDS    SUNNY     84  48  28 NW14      29.93F
STEVENS POINT  NOT AVBL
WAUPACA        NOT AVBL
SHAWANO        NOT AVBL
CLINTONVILLE   MOSUNNY   81  43  26 NW13G23   29.89F
$$

WIZ038-039-048-051-012100-
FOX VALLEY

CITY           SKY/WX    TMP DP  RH WIND       PRES   REMARKS
NWS GREEN BAY  SUNNY     82  51  34 W14G22    29.88F
APPLETON       MOSUNNY   81  43  26 NW16G23   29.91F
OSHKOSH        MOSUNNY   80  51  36 NW13G21   29.90F
FOND DU LAC    PTSUNNY   82  53  36 W16       29.91F
$$

WIZ022-050-052-012100-
EAST CENTRAL WISCONSIN

CITY           SKY/WX    TMP DP  RH WIND       PRES   REMARKS
STURGEON BAY   MOSUNNY   79  52  38 W10       29.89F
MANITOWOC      NOT AVBL
SHEBOYGAN      SUNNY     81  53  37 NW14G24   29.90F
$$

LMZ563-521-522-541>543-012100-
LAKESHORE

STATION/POSITION TIME  TEMP    WIND        PRES    VSBY  WAVE
                       AIR SEA DIR/SP/G                  HT/PER
                 (UTC) (F)     (DEG/KT/KT) (MB)    (MI)  (FT/S)
SHEBOYGAN LKSHOR 1900   79     290/ 17/ 21 1012.8F
KEWAUNEE LKSHORE 1900   79     300/  9/ 15 1011.7F
ALGOMA MARINA    1912          250/  8/ 15   N/A
NORTHPORT PIER   1900   78     310/  6/ 14 1011.2F
N MID LAKE BUOY  1850   69 68  210/ 12/ 12 1010.9F         1
S GREEN BAY BUOY 1900   72 71  260/  6/  8 1013.3F
SISTER BAY LKSHO 1914   79     280/  8/  9   N/A
CHAMBERS ISLAND  1900   78     240/  5/  6 1011.2F
MENOMINEE LKSHOR 1900   78     280/  9/ 14 1012.0F
$$



USA.gov is the U.S. government's official web portal to all federal, state and local government web resources and services.